GEFSMW_500_meanwind_000.txt.gz
Wind_Speed
22 21 20 22 21 21 22 24 24 25 26 24 23 23 23 18 24 21 22 24 23 21 18 13 15 17 18 18 17 15 16 16 15 14 12 10 13 14 13 13 16 20 22
24 22 22 22 22 23 25 26 26 26 26 26 26 25 24 23 25 24 22 23 23 23 24 15 14 16 17 16 17 18 18 18 17 16 14 11 10 11 11 12 15 19 21
25 24 23 21 24 26 28 29 29 29 29 28 29 28 27 28 29 31 30 28 26 25 23 25 18 14 17 19 19 20 20 19 18 17 16 13 11 11 10 10 12 15 18
25 25 25 24 26 27 28 29 30 30 31 31 31 30 30 31 32 33 33 31 29 28 26 28 22 18 19 22 23 23 23 22 21 21 20 16 13 13 11 10 10 12 14
26 27 27 26 27 28 29 31 32 32 32 32 33 33 33 33 33 31 31 31 28 27 25 22 22 22 26 25 25 25 25 23 24 24 22 20 17 16 14 13 13 12 13
27 27 26 26 27 29 31 32 32 31 31 33 34 34 35 34 32 28 26 25 23 24 26 25 25 24 30 31 29 26 26 26 25 27 25 24 22 19 17 17 16 15 14
25 24 24 26 27 30 31 31 31 31 31 31 31 31 32 32 29 25 22 20 19 21 26 30 30 28 31 33 31 31 33 31 29 28 27 26 26 24 22 22 20 19 18
21 22 24 26 29 31 32 32 31 31 30 30 28 27 26 26 24 20 17 16 15 14 19 25 30 31 29 26 29 33 37 37 35 33 31 29 29 28 25 23 22 21 19
20 23 25 27 29 30 29 30 29 30 29 27 27 25 23 21 20 17 15 14 12 12 13 16 21 25 27 27 34 31 36 39 37 34 34 31 30 29 26 24 23 22 20
24 27 29 29 29 28 28 26 24 27 27 26 25 25 22 21 19 16 14 14 13 13 14 16 18 20 21 19 28 35 36 41 41 39 36 35 33 31 26 26 24 23 23
26 27 27 26 26 26 27 24 25 27 27 24 23 22 21 19 18 16 13 12 13 14 15 16 16 17 20 19 20 30 37 41 44 42 36 34 35 34 31 27 29 28 26
27 28 25 23 24 25 26 26 28 28 27 23 21 20 19 19 19 18 15 13 13 15 17 18 18 17 18 17 15 12 22 39 41 36 34 31 35 37 36 35 33 33 31
27 27 24 24 26 27 26 27 27 28 28 23 20 19 18 19 21 21 20 18 17 17 18 19 21 21 21 20 18 16 14 22 32 35 41 35 35 36 33 33 35 35 33
26 25 22 23 26 27 29 30 29 29 27 23 21 19 20 21 22 24 24 23 22 21 21 22 23 24 24 22 21 20 18 21 28 27 33 37 34 33 33 35 36 35 34
27 25 23 23 25 29 30 29 29 27 23 22 21 20 21 20 21 22 23 24 23 23 23 24 25 25 26 23 20 20 22 25 27 26 27 28 28 27 29 32 35 35 35
30 29 29 30 27 23 23 24 24 20 21 21 23 24 21 19 18 18 19 21 23 23 24 24 24 25 26 26 24 21 25 28 29 27 26 28 31 30 29 31 36 37 35
34 34 31 28 23 19 18 18 17 22 23 20 23 23 21 22 22 21 22 22 23 24 25 25 24 25 26 27 28 26 27 30 32 29 26 26 30 31 32 34 35 34 33
27 26 24 21 19 18 18 18 18 22 20 16 21 22 23 25 27 27 25 24 24 25 26 25 25 25 27 30 31 30 29 28 29 31 32 32 31 29 29 29 33 34 32
14 11 11 11 13 17 19 19 17 17 18 19 22 25 27 28 27 26 25 25 25 25 24 24 24 25 28 29 30 30 30 28 26 27 28 30 32 32 29 27 28 34 37
4 4 7 10 14 17 17 16 17 18 19 22 25 26 26 26 24 23 23 24 24 25 25 24 26 27 27 26 28 29 29 29 26 25 28 28 27 28 30 30 29 29 33
6 7 10 12 15 15 15 16 17 18 20 22 23 24 24 23 21 21 21 22 22 24 25 26 27 28 28 27 29 30 31 29 27 25 25 26 24 22 24 28 30 31 31
10 11 12 12 12 12 14 14 16 18 19 21 21 21 21 20 19 19 20 21 23 25 26 27 28 29 29 30 28 30 31 30 28 25 24 23 21 22 23 24 25 28 32
12 14 12 10 11 11 11 14 16 17 18 19 19 17 16 16 16 16 18 21 24 27 28 30 31 30 29 28 26 27 31 33 30 27 23 21 19 19 21 22 23 26 28
12 11 10 9 9 10 13 14 16 17 16 16 15 13 12 13 14 15 18 21 24 27 29 29 30 31 29 27 25 27 31 32 30 28 26 25 25 22 22 23 22 21 21
11 10 9 8 9 11 13 14 15 15 15 14 13 12 12 12 13 14 17 21 23 24 19 13 13 19 25 26 23 23 25 26 25 24 23 23 23 23 22 22 21 21 21
13 12 10 9 8 10 11 12 13 14 14 12 12 11 11 11 11 11 14 17 18 18 11 5 5 6 16 21 22 22 22 22 22 21 21 20 21 22 23 24 24 23 22

GEFSMW_500_meanwind_006.txt.gz
Wind_Speed
25 23 22 21 20 19 19 18 17 18 19 20 21 22 24 24 24 26 26 25 25 23 22 23 25 24 22 19 18 18 19 16 15 14 15 14 13 13 14 14 14 15 15
30 25 21 20 19 19 19 19 19 20 21 21 22 23 24 25 25 26 27 27 27 27 26 25 26 26 23 20 17 18 19 17 16 15 15 13 12 12 12 14 14 15 15
33 28 23 21 20 19 19 19 20 22 22 23 25 25 24 25 26 27 29 30 30 31 29 27 27 27 24 21 19 18 19 19 18 17 16 15 13 12 12 13 13 14 14
33 31 26 24 21 20 20 20 20 22 23 24 25 25 24 26 29 30 31 33 34 34 32 28 27 27 26 23 23 21 19 19 21 20 18 17 16 14 12 11 11 11 12
33 31 28 26 23 22 21 20 20 21 23 24 25 26 28 31 32 32 32 33 34 33 32 29 27 26 24 24 24 23 21 20 22 23 20 19 18 18 15 12 10 9 9
32 31 28 26 24 22 20 20 21 22 23 25 26 28 30 32 33 32 31 31 31 30 29 27 26 25 23 22 21 22 21 21 21 23 23 21 21 22 19 16 12 10 9
28 28 25 25 23 20 18 20 21 23 25 27 28 28 30 31 31 30 29 29 28 25 25 25 25 24 23 23 22 22 21 22 21 21 25 25 23 24 23 20 17 14 12
23 21 20 19 16 15 18 21 23 24 27 28 27 27 28 28 27 27 27 27 25 22 21 22 21 23 25 26 26 25 25 24 22 23 26 26 25 26 27 24 21 19 17
14 13 13 12 14 18 21 23 24 25 26 26 25 25 26 26 26 25 26 25 22 20 19 18 17 18 20 23 24 25 25 25 24 26 29 30 30 29 29 28 25 23 22
13 14 13 14 18 20 23 24 24 24 24 24 25 25 24 24 23 23 22 22 20 18 18 18 17 16 16 17 18 20 21 22 23 26 30 33 34 35 33 30 28 26 25
17 17 16 17 19 20 22 23 23 23 23 25 24 23 23 24 24 22 19 18 18 17 17 16 17 16 15 16 16 18 19 21 23 24 27 33 36 37 37 34 32 29 28
20 20 21 21 19 20 22 22 22 23 24 25 26 26 26 26 25 21 18 17 17 17 17 17 17 17 17 16 17 17 19 20 21 23 25 30 36 37 38 35 33 32 30
18 18 19 18 19 21 22 22 22 23 25 28 29 29 28 27 24 20 18 17 17 18 18 18 19 19 20 20 19 19 21 21 22 23 23 25 33 38 37 35 33 32 31
17 17 16 16 18 21 22 23 26 28 28 29 29 29 26 23 20 18 17 17 18 19 19 20 21 22 22 22 22 22 22 22 22 22 23 23 28 36 39 36 34 33 32
21 21 20 19 20 22 22 24 27 29 29 26 26 26 23 19 17 18 19 19 18 18 19 20 21 22 23 23 23 23 22 22 22 21 20 18 20 30 37 37 35 32 31
25 25 24 23 23 23 23 25 26 26 25 23 23 24 23 21 20 21 21 22 21 20 21 21 22 23 23 24 25 25 24 23 23 21 19 18 18 20 27 34 35 33 32
24 22 23 23 23 23 23 23 22 21 21 21 21 21 22 22 22 23 23 23 23 24 24 24 25 25 24 24 24 25 26 25 24 23 21 20 20 20 21 26 31 31 30
15 15 16 17 18 18 17 16 16 17 18 19 20 20 20 21 22 22 22 23 24 24 24 24 25 25 25 24 24 25 26 26 26 25 24 23 23 23 23 23 25 26 27
5 6 7 8 10 10 11 13 15 17 19 20 21 21 21 21 22 23 23 24 24 24 23 24 24 23 24 24 25 26 26 27 27 28 27 26 26 26 26 26 27 26 26
3 1 2 4 7 9 12 15 17 19 20 22 22 22 22 23 23 23 22 21 20 20 20 21 21 21 22 23 24 25 25 26 26 27 28 28 26 25 26 27 28 29 29
3 3 5 7 10 13 15 16 17 18 20 21 22 22 22 22 21 19 18 17 16 17 18 19 21 23 25 25 25 26 25 26 26 26 27 27 26 25 25 25 26 28 28
4 6 8 11 13 13 14 15 16 18 20 21 21 21 20 20 18 17 16 15 15 17 19 21 24 26 28 29 29 28 27 26 26 26 25 25 24 24 23 23 24 24 24
6 8 10 11 12 13 13 15 17 18 20 20 20 20 19 19 17 17 16 15 16 19 22 25 28 30 31 31 32 31 29 27 26 25 25 24 23 22 22 21 21 21 22
8 9 10 10 11 12 13 15 16 17 18 20 21 20 18 17 15 14 14 14 16 19 22 24 26 27 28 28 29 29 29 27 25 23 23 22 21 21 21 20 19 18 18
10 11 11 10 11 12 13 15 16 18 19 21 22 21 18 15 13 12 12 14 17 19 20 22 22 24 24 23 22 24 25 24 21 20 19 20 20 20 20 21 20 20 19
11 11 10 10 11 13 14 16 18 20 21 22 22 20 17 14 12 11 13 14 16 17 18 19 19 18 15 11 12 17 20 21 19 18 18 18 19 19 21 22 22 22 21

GEFSMW_500_meanwind_012.txt.gz
Wind_Speed
33 30 27 24 22 19 19 20 20 20 20 19 17 16 15 15 15 15 14 14 15 16 18 18 18 20 21 21 21 20 18 19 21 22 19 17 16 16 17 16 15 16 16
36 34 31 27 24 21 20 21 21 21 21 20 18 16 15 14 14 14 14 15 16 18 20 21 21 23 24 24 24 24 21 20 21 22 20 18 16 16 16 16 16 16 16
39 39 34 29 26 23 22 22 22 22 22 21 19 16 15 14 14 15 17 18 20 21 22 23 24 25 26 26 26 25 23 21 22 23 21 20 18 17 16 15 15 16 16
41 40 36 31 27 26 25 24 23 22 22 21 18 17 15 15 15 17 19 21 22 23 24 24 24 25 27 27 27 25 23 22 23 24 23 22 20 18 16 15 14 15 16
40 39 35 31 28 29 29 26 24 22 21 20 17 17 16 17 19 20 22 23 23 24 24 24 24 25 26 27 27 25 24 24 25 26 25 24 23 21 18 16 14 14 14
36 37 35 32 33 35 32 26 24 22 21 18 16 16 17 19 21 22 23 24 24 23 23 23 24 25 26 26 26 25 25 25 27 28 27 26 24 22 20 18 16 15 14
27 31 34 36 36 35 30 24 22 20 18 16 15 16 18 21 22 23 24 24 24 23 23 23 23 24 25 24 24 24 25 27 27 27 28 27 25 24 22 21 18 16 15
20 25 29 31 33 33 28 23 19 16 15 15 16 18 20 22 22 23 24 24 24 24 23 22 22 23 22 22 21 22 23 25 25 24 24 26 25 24 25 24 22 20 18
19 22 25 26 27 27 24 18 14 12 13 16 18 20 21 22 23 24 24 24 24 23 23 22 22 21 21 19 18 18 20 22 23 21 21 22 23 23 24 25 25 24 23
22 24 25 25 22 20 18 14 11 11 14 17 20 21 22 22 23 24 24 24 23 22 21 21 21 20 19 17 15 14 16 18 20 21 21 20 21 22 22 23 26 27 27
22 23 23 21 18 16 12 10 10 12 15 18 20 21 22 23 24 26 25 24 22 21 20 20 19 18 16 15 14 13 14 15 17 19 20 20 21 21 22 24 26 28 29
15 14 14 12 10 8 8 9 11 14 17 20 22 23 25 25 25 24 24 22 20 19 19 18 18 17 16 15 14 13 13 14 15 17 18 19 20 21 22 23 25 28 30
7 7 7 5 4 5 6 10 12 16 19 21 24 25 25 23 22 22 21 20 18 17 17 17 17 17 17 16 16 15 15 15 16 17 18 19 20 22 22 24 26 29 31
5 6 7 6 6 7 9 12 15 17 19 22 24 25 23 19 18 19 19 18 18 18 18 17 17 17 18 19 19 19 18 18 18 19 20 20 21 21 22 24 26 29 33
8 8 9 9 10 11 14 16 17 19 21 22 24 24 19 17 16 17 18 19 20 20 20 19 18 18 18 20 21 22 22 22 22 22 23 23 23 23 23 23 25 29 33
11 11 11 12 14 17 18 19 19 20 20 21 22 20 19 17 16 17 19 19 19 19 20 20 21 20 20 21 22 23 23 23 23 24 25 25 25 25 24 22 22 25 30
9 11 13 14 15 17 18 18 17 17 18 18 18 18 18 18 19 20 20 20 21 21 21 21 21 22 22 22 22 23 23 24 24 25 25 25 26 25 24 22 21 22 26
6 7 8 9 10 12 13 13 13 14 15 16 17 19 20 20 20 20 21 21 22 22 23 23 23 22 23 24 23 23 23 24 24 25 26 25 25 25 24 22 22 21 22
2 2 3 5 7 8 9 11 12 13 15 16 17 18 19 19 20 20 21 21 22 22 22 23 22 21 21 21 22 22 22 22 23 24 25 26 26 25 24 24 23 22 22
4 2 1 3 5 7 9 11 13 14 15 16 16 17 18 19 19 20 20 21 21 21 21 21 21 20 20 20 20 20 21 21 22 22 23 25 26 26 25 24 24 23 22
3 3 4 6 8 9 11 12 14 15 15 16 17 17 18 19 19 20 20 20 20 20 20 20 20 21 21 22 22 22 22 23 22 22 22 23 25 25 25 25 25 25 23
5 6 7 8 10 11 12 14 15 16 16 17 18 18 19 20 19 19 18 18 18 18 18 19 20 21 23 24 26 27 28 28 27 26 25 25 25 25 24 24 25 25 25
9 9 10 11 11 12 13 14 16 17 18 19 19 20 20 19 18 17 16 15 15 17 18 20 21 22 24 26 27 29 31 31 31 30 28 27 26 25 24 23 23 24 24
11 11 11 12 13 13 14 15 16 18 19 19 19 19 18 17 16 15 14 15 16 17 19 20 21 23 25 26 28 29 30 30 30 30 30 28 26 24 23 23 22 23 23
11 12 13 14 14 15 15 16 17 17 17 17 16 15 14 14 13 13 13 14 16 18 19 19 20 21 22 22 23 23 24 25 26 26 27 25 23 22 21 21 21 21 21
12 13 15 16 16 16 17 18 18 17 16 15 15 14 14 13 12 11 12 14 16 17 17 18 18 18 17 17 15 12 11 14 17 19 20 20 19 19 18 18 18 18 19

GEFSMW_500_meanwind_018.txt.gz
Wind_Speed
33 32 29 28 28 28 27 27 25 24 23 22 21 21 20 20 19 19 19 19 19 20 20 20 20 21 22 23 24 24 24 24 23 22 22 22 22 23 22 22 23 24 24
37 35 33 31 30 29 28 28 28 26 25 24 23 22 22 21 21 20 20 20 20 20 21 22 23 23 24 25 26 26 26 26 25 25 25 23 23 23 23 22 23 24 24
40 38 36 34 33 32 31 30 31 30 28 27 26 25 25 24 23 22 21 21 21 21 22 23 24 25 26 27 26 26 27 27 27 27 26 25 24 23 23 23 23 24 24
41 39 37 36 36 35 34 34 34 34 33 32 30 29 27 26 24 23 23 22 23 23 23 24 25 26 26 26 26 26 28 29 29 29 28 27 26 24 24 24 24 24 24
40 38 37 37 38 39 39 39 38 38 37 35 34 31 28 26 25 24 24 24 24 24 24 25 25 25 26 26 26 26 28 29 30 31 30 30 27 25 25 24 25 25 24
38 37 37 37 39 41 43 43 42 42 40 37 34 30 27 25 23 23 23 23 23 23 24 24 25 25 25 26 27 27 28 29 30 30 31 31 29 27 26 25 26 27 25
36 37 38 38 39 41 44 44 46 45 43 41 35 29 25 22 21 22 22 23 23 23 24 24 24 25 26 27 28 28 28 28 28 29 30 30 30 28 27 26 26 27 26
33 36 37 38 38 39 43 44 46 47 45 39 31 26 21 18 19 20 21 22 23 24 25 25 25 25 26 27 28 28 28 27 27 27 28 29 30 29 27 26 25 26 26
30 33 34 35 36 37 39 40 42 45 41 34 27 21 18 17 17 19 20 23 24 26 26 27 27 27 27 27 27 27 26 25 25 25 25 27 26 25 24 23 23 23 25
27 29 29 30 32 34 36 37 36 36 33 27 21 17 16 16 18 20 22 23 26 28 28 29 29 28 27 26 26 24 23 23 23 22 23 24 24 22 22 23 23 23 25
22 23 24 23 23 22 22 23 21 19 17 15 14 13 14 16 19 21 23 25 27 28 28 28 28 27 26 25 24 22 21 21 20 20 20 20 21 21 20 21 22 22 24
12 12 13 13 10 6 9 11 10 9 9 9 10 11 14 17 19 22 24 25 26 26 26 26 25 24 24 23 22 21 21 20 19 19 19 19 19 19 19 19 20 22 22
4 3 3 2 4 7 9 9 6 4 5 8 10 13 16 19 21 22 23 23 23 22 22 22 23 22 22 22 21 20 20 20 20 19 18 18 18 17 18 18 19 20 22
4 4 4 5 6 6 6 5 3 5 8 11 13 15 17 19 20 20 20 19 19 19 19 21 21 22 22 22 21 21 21 21 21 20 20 19 18 18 18 18 19 20 20
6 6 4 4 4 4 3 3 6 8 11 13 15 16 18 18 17 17 16 15 17 18 19 20 20 21 22 22 22 21 21 21 22 22 22 21 20 19 19 19 19 20 21
5 4 2 1 2 3 4 6 8 11 13 14 15 16 17 16 16 16 17 17 18 19 19 20 20 21 22 22 22 23 23 22 22 22 23 23 23 22 22 21 21 22 22
3 1 1 2 4 5 7 8 10 11 12 13 14 15 15 16 17 18 18 19 20 20 20 21 21 21 22 23 23 23 24 24 24 23 23 23 24 24 24 23 23 24 24
6 4 3 3 4 6 7 8 8 10 11 12 13 15 17 18 19 19 20 20 21 21 22 22 22 22 23 23 23 23 23 24 24 24 24 23 23 23 24 24 24 24 24
9 7 6 6 6 6 7 8 9 10 12 13 15 17 18 19 20 20 20 21 21 22 22 22 22 22 22 23 23 22 22 22 22 22 23 24 23 23 23 23 23 23 23
10 9 8 7 7 7 8 9 10 12 13 15 16 18 19 20 21 21 22 22 22 22 21 21 21 21 21 21 21 21 21 21 21 20 21 22 22 22 21 22 22 22 22
10 9 9 9 9 9 10 10 12 13 14 16 17 19 20 20 21 22 22 22 21 21 20 19 19 19 20 20 21 21 22 22 22 22 21 21 21 20 20 20 20 20 21
10 10 11 11 11 12 12 13 14 15 16 17 18 19 20 20 20 20 20 19 19 19 18 18 18 19 19 20 21 22 22 23 23 23 23 23 22 20 19 18 18 19 19
12 13 13 13 14 15 16 17 17 17 17 17 18 18 18 18 17 17 17 16 16 16 16 17 17 18 18 19 20 21 22 23 24 25 25 25 24 23 21 19 19 18 19
14 14 14 15 15 16 17 18 18 18 17 17 17 17 16 16 16 15 15 14 14 15 15 15 16 16 17 17 18 19 20 21 22 24 25 25 25 24 23 21 19 19 18
14 14 15 15 16 16 17 17 17 17 17 17 17 16 16 16 15 14 14 14 14 14 14 14 13 13 13 14 14 15 15 16 17 18 20 21 22 21 21 20 19 18 18
13 14 15 15 16 16 16 16 16 17 17 18 18 17 17 16 16 16 15 15 15 15 15 13 13 12 12 12 12 11 10 7 5 7 10 14 16 16 16 16 16 16 15

GEFSMW_500_meanwind_024.txt.gz
Wind_Speed
37 36 36 36 35 33 32 31 30 30 29 28 28 27 25 25 25 25 26 26 26 25 24 24 23 23 23 22 22 22 22 22 23 23 23 23 24 24 23 24 24 25 26
39 38 38 39 38 38 37 35 34 34 33 32 32 31 29 28 28 29 29 29 29 28 26 25 24 23 23 23 23 24 24 25 26 26 26 26 26 26 25 25 25 25 26
37 37 38 39 40 40 40 40 38 37 36 36 36 35 33 33 32 32 33 32 31 30 28 27 26 25 25 25 25 25 26 27 28 28 28 28 28 28 27 26 26 26 25
33 35 36 38 39 41 42 42 41 40 40 40 40 39 38 38 37 36 35 34 33 31 30 28 27 25 25 25 25 26 26 27 27 28 28 29 30 30 30 29 28 27 26
33 33 35 37 39 41 42 44 44 44 42 42 42 42 42 42 40 38 36 34 33 32 31 30 27 25 25 26 26 26 26 27 28 28 29 29 30 31 31 31 30 29 28
34 34 35 37 38 40 42 44 44 45 44 44 44 44 44 44 43 41 38 35 34 33 32 29 27 25 25 26 26 26 26 27 27 28 28 29 30 30 30 31 31 30 28
35 36 37 37 38 39 41 42 43 44 44 44 45 46 45 46 47 44 40 36 34 32 30 27 25 24 24 25 26 27 27 27 27 28 28 28 28 28 28 29 29 29 28
34 35 35 35 35 36 37 39 41 42 42 42 43 45 47 47 46 44 41 36 33 30 26 24 22 23 24 25 27 27 27 27 27 27 27 26 26 26 26 27 27 27 27
27 28 29 30 30 30 32 35 37 38 39 40 42 42 42 43 45 43 37 34 30 25 22 21 21 23 24 26 27 27 27 27 26 25 25 24 24 24 24 25 25 25 26
18 19 20 22 22 23 25 28 31 33 34 35 37 38 40 39 37 34 29 26 22 18 17 18 21 22 23 24 25 25 24 24 24 23 23 22 22 22 22 22 22 22 23
10 10 11 13 15 17 19 21 23 25 27 28 29 30 30 27 24 20 17 15 14 15 17 19 20 21 21 22 22 22 21 21 21 21 21 20 20 20 19 20 19 20 21
4 4 4 5 7 9 10 9 11 12 12 13 14 13 12 12 11 10 9 10 10 13 16 18 20 20 20 20 19 19 19 19 20 20 20 19 19 18 18 18 18 18 19
8 7 6 5 4 4 3 4 5 5 5 5 5 6 5 4 4 5 6 8 10 13 15 16 17 18 18 18 18 19 19 19 19 19 20 19 19 18 18 17 18 18 18
10 10 10 9 9 8 8 8 8 6 5 5 4 2 1 1 3 5 7 8 10 12 13 15 17 18 18 19 19 20 20 20 20 20 20 20 20 19 18 17 17 18 17
11 10 10 10 10 9 8 8 7 6 5 4 3 3 3 4 5 6 7 9 11 12 14 16 17 18 19 19 20 20 20 20 20 20 21 20 21 20 20 19 18 18 18
10 10 10 10 9 8 8 7 6 6 6 5 5 5 5 6 7 8 9 11 13 15 16 18 19 20 21 21 21 21 21 21 21 21 21 21 22 22 21 21 21 20 20
11 11 10 9 9 9 9 8 7 7 7 7 7 6 7 8 10 12 13 15 16 17 19 20 21 22 22 23 22 22 22 23 22 22 22 23 23 23 23 22 23 22 22
13 12 11 10 10 9 9 8 8 8 8 8 8 9 10 11 13 14 16 18 19 20 21 22 23 23 23 24 23 23 23 23 23 23 22 22 22 23 23 23 23 23 23
14 13 12 12 11 10 10 9 9 9 9 9 10 11 12 13 14 16 17 19 20 21 22 23 23 23 24 24 24 24 24 24 24 23 22 22 21 22 23 23 22 22 22
13 13 12 12 11 11 11 10 10 10 10 10 10 11 12 13 15 16 17 18 19 20 21 22 22 23 23 23 23 23 24 24 24 23 22 21 20 20 21 21 21 21 21
13 13 13 13 13 12 12 11 11 11 10 11 11 12 12 13 14 15 16 17 17 18 19 19 20 21 21 21 21 21 22 23 23 22 21 21 20 19 19 19 19 19 19
14 15 15 15 15 14 14 13 13 13 13 13 13 14 14 15 15 16 16 16 16 16 16 17 17 18 18 19 19 20 20 21 22 22 22 21 20 20 19 18 17 17 17
15 16 16 17 17 17 16 16 15 15 15 15 16 16 17 17 17 18 18 17 16 16 15 15 15 15 16 16 17 17 18 18 19 20 20 20 20 20 19 17 16 15 15
16 16 17 17 18 18 17 17 17 17 17 17 18 18 19 19 19 19 19 19 17 16 16 14 14 13 12 12 12 13 13 14 15 16 17 18 18 18 17 17 16 14 14
15 16 16 17 17 17 17 17 18 18 18 18 19 19 20 20 21 21 21 21 19 18 17 15 13 12 11 10 10 10 10 10 9 9 11 13 14 15 15 15 15 14 13
14 15 15 16 16 16 17 17 17 17 18 18 19 19 21 21 22 22 22 21 21 20 19 18 17 15 14 13 12 10 7 4 1 3 5 8 9 10 11 11 10 10 10

GEFSMW_500_meanwind_030.txt.gz
Wind_Speed
42 40 38 38 37 37 36 36 35 33 32 32 31 31 31 30 28 26 25 26 26 26 26 27 27 26 27 26 26 26 25 24 24 23 22 22 22 22 23 24 26 25 24
42 41 40 39 39 38 38 37 37 36 35 35 35 35 35 33 32 30 28 28 28 28 27 29 29 29 29 29 27 26 25 24 23 23 23 23 24 25 24 25 27 27 26
40 39 38 37 36 37 36 36 36 36 36 36 36 37 37 36 34 33 31 30 30 30 30 31 32 32 31 31 30 28 26 24 24 24 24 24 25 25 26 26 27 29 28
37 35 34 33 33 33 33 34 34 35 36 37 38 38 39 38 36 36 35 34 33 33 33 32 32 33 32 32 32 30 28 27 26 25 25 25 26 26 27 28 28 29 30
33 32 31 30 30 30 31 32 33 34 36 37 37 38 38 39 38 38 38 37 36 36 36 35 34 34 33 32 32 31 29 27 26 25 25 25 26 27 27 28 29 29 29
30 31 31 31 31 31 31 32 33 34 36 37 38 38 39 40 40 41 40 39 38 37 37 36 36 35 34 32 31 31 30 29 27 26 25 26 27 28 28 28 29 29 28
33 32 32 32 33 33 33 34 35 36 37 38 39 39 39 40 41 42 42 40 40 39 37 37 36 36 35 33 33 32 31 29 27 26 26 26 28 29 29 29 29 29 28
34 33 33 33 34 34 34 35 36 37 38 38 38 38 38 39 40 40 41 40 40 40 39 39 38 36 35 34 34 33 30 29 28 27 26 27 28 28 29 29 28 28 28
30 31 31 32 32 33 33 34 35 36 36 36 35 36 36 37 38 38 39 39 39 39 39 37 35 34 35 35 34 31 28 28 27 26 27 27 28 28 28 28 28 27 25
23 25 26 27 28 29 30 31 32 32 31 31 31 31 32 33 35 35 34 36 36 36 36 36 34 34 34 34 30 25 24 25 25 25 26 26 26 26 26 26 26 25 24
16 17 18 19 21 22 23 23 23 24 24 24 25 26 26 27 29 29 30 30 31 32 33 33 31 29 27 24 22 21 21 22 22 23 23 24 24 24 25 25 24 24 23
9 9 8 9 11 12 12 14 14 14 15 15 16 17 18 20 21 23 23 24 24 23 23 21 20 19 18 17 17 18 20 21 21 22 22 23 23 23 23 24 23 23 23
1 3 3 2 2 2 3 4 3 4 5 7 7 8 9 10 10 11 11 11 11 11 12 12 11 12 14 15 17 18 19 20 21 21 22 22 22 22 23 23 23 22 22
8 7 6 5 4 4 5 5 5 5 4 3 1 0 0 0 1 1 2 3 4 5 7 8 10 12 13 15 16 18 19 21 21 21 22 22 22 22 22 23 22 22 21
14 14 12 12 10 10 11 10 10 9 9 8 7 7 6 5 4 3 2 3 5 6 8 10 11 13 14 16 18 19 20 21 22 22 21 21 21 21 22 22 22 22 22
18 18 17 16 15 14 13 12 11 11 10 9 9 8 7 6 5 5 5 6 7 9 11 12 13 14 16 18 20 21 22 22 22 22 22 21 21 21 21 21 21 22 22
21 20 19 17 16 15 14 13 12 11 10 9 9 8 7 6 7 7 8 9 11 12 13 15 16 17 19 20 22 23 23 23 23 23 22 21 21 21 21 21 21 21 21
20 19 18 17 16 15 14 13 12 12 11 11 10 10 10 10 10 10 10 11 13 14 15 17 18 20 21 22 23 24 24 24 24 23 22 21 20 20 20 20 20 20 20
19 19 18 17 17 16 16 15 14 14 13 13 12 12 12 12 12 12 12 13 14 16 17 19 20 21 22 23 23 23 24 24 24 23 22 21 20 20 20 19 19 19 19
19 19 18 18 18 17 17 16 16 16 16 16 15 15 15 14 14 14 14 14 14 15 16 18 19 20 21 22 22 23 23 23 22 21 21 20 20 20 19 18 17 17 16
19 19 19 19 19 18 18 18 18 18 18 18 18 18 17 17 17 17 17 17 16 16 15 16 16 17 17 18 19 19 20 20 20 19 18 18 18 18 17 16 15 14 13
18 18 19 19 19 19 19 19 19 19 20 20 20 20 20 20 20 20 20 19 18 17 15 14 13 13 13 14 14 14 15 16 16 16 15 15 15 15 15 14 13 12 11
17 17 18 18 19 19 20 20 20 20 20 21 22 22 22 22 22 21 22 21 20 18 17 16 14 13 12 12 12 11 11 11 12 12 12 12 13 13 14 13 12 11 10
16 16 17 17 18 18 18 19 19 20 20 21 22 22 23 23 23 22 23 24 22 21 20 18 17 15 14 12 11 9 7 7 7 7 7 8 10 11 12 11 10 9 8
14 15 16 16 16 17 17 18 19 19 20 20 21 22 22 23 24 24 24 25 25 23 23 22 21 19 17 14 12 9 6 2 1 3 5 6 7 8 9 8 8 6 5
13 14 14 15 15 16 17 17 18 19 19 20 21 21 22 23 24 24 25 26 26 26 26 26 25 24 22 20 17 14 12 10 8 8 8 7 7 7 7 6 5 5 3

GEFSMW_500_meanwind_036.txt.gz
Wind_Speed
39 39 39 38 38 38 38 38 36 35 33 32 31 30 30 30 31 30 30 29 28 26 25 24 23 23 22 21 22 23 23 24 25 24 24 25 25 23 21 21 21 21 21
42 41 40 40 40 41 41 41 40 39 38 36 34 34 34 33 33 33 33 33 32 29 27 26 25 24 24 23 22 23 24 25 26 27 27 27 27 26 24 23 23 22 22
44 43 42 42 42 42 43 43 43 42 41 40 38 36 35 35 34 35 35 35 32 30 28 27 25 24 24 24 23 22 23 24 26 28 29 28 28 27 27 26 25 23 22
44 43 41 42 43 42 42 42 42 42 41 40 38 37 35 35 35 35 34 34 33 31 30 29 28 26 25 25 24 23 24 25 26 27 29 29 29 28 28 28 27 26 24
42 41 39 38 39 40 41 41 41 41 40 39 38 36 35 34 34 34 34 34 32 32 32 30 29 27 26 26 26 25 25 25 26 27 29 30 30 30 29 29 29 28 27
35 35 35 34 35 36 38 38 39 39 39 39 37 36 35 34 34 34 34 35 34 33 32 31 31 29 28 28 25 25 26 26 27 28 29 31 32 32 31 30 30 29 28
28 29 30 32 32 33 34 36 36 37 37 36 36 36 35 35 35 36 35 35 35 35 34 33 32 32 31 30 29 27 26 28 28 28 29 30 32 32 32 31 31 30 28
25 26 26 27 29 30 32 33 34 35 35 36 36 36 36 36 36 36 36 37 37 37 35 34 34 34 31 29 29 29 29 29 29 30 30 31 31 32 32 32 31 30 29
17 18 19 21 23 25 28 31 32 33 33 34 35 36 36 36 36 36 36 36 37 37 36 35 34 32 29 28 29 30 30 30 30 30 31 32 32 33 32 31 30 29 27
11 11 12 13 16 20 23 26 28 30 31 32 32 33 33 33 34 34 34 34 34 35 35 34 33 31 30 30 30 30 29 30 30 31 31 32 33 33 31 30 29 27 25
8 6 7 8 9 12 15 17 20 22 24 25 26 27 28 28 28 29 28 28 28 28 29 28 27 27 26 27 27 29 30 30 30 31 32 32 31 29 28 27 25 24 23
8 6 5 4 2 3 5 7 9 11 13 15 16 17 18 19 19 20 21 21 21 22 22 22 22 23 23 24 24 25 25 24 24 24 25 25 24 24 24 23 23 22 21
10 9 8 6 4 4 3 2 1 1 2 4 5 7 8 9 10 11 12 13 14 15 16 16 17 18 19 19 20 20 20 19 19 19 19 19 19 20 20 20 21 20 20
14 13 11 10 9 7 7 8 7 6 5 4 3 2 2 3 3 4 4 5 6 7 9 11 12 14 15 15 15 15 15 16 16 17 17 18 18 19 20 20 20 19 19
18 18 18 16 14 13 12 11 11 10 9 8 7 7 6 5 4 4 4 3 3 4 6 7 8 10 12 13 13 14 15 15 16 16 17 17 17 18 18 18 19 19 19
20 19 19 18 18 17 16 15 15 13 13 12 11 10 8 7 7 6 6 7 7 8 8 9 10 11 12 14 15 16 17 18 18 18 18 18 18 18 18 18 18 18 18
20 20 20 19 18 18 17 16 16 15 14 13 12 11 10 9 9 9 9 9 9 10 11 13 14 15 16 17 18 18 19 20 19 20 19 19 19 19 18 18 18 18 18
21 21 20 20 20 20 19 18 18 17 17 16 15 14 12 12 11 11 11 12 12 12 13 15 16 18 19 20 21 22 22 22 21 21 21 20 20 19 19 18 18 18 17
21 20 20 20 20 20 20 20 20 19 19 18 17 16 16 15 14 14 14 14 14 13 14 15 15 17 19 20 21 22 23 23 23 22 22 22 21 20 19 18 17 17 17
21 21 21 21 21 21 21 21 21 20 19 19 18 18 18 17 17 16 16 15 15 15 14 14 15 15 16 17 18 19 20 21 22 22 22 21 21 20 19 18 17 17 16
21 21 21 21 20 20 21 21 21 20 20 20 19 19 19 19 19 18 17 17 17 16 15 15 15 14 13 13 14 15 16 17 18 19 19 19 18 17 17 16 16 16 15
19 20 20 19 19 19 20 20 20 20 20 20 20 20 20 20 21 21 20 20 20 19 17 16 15 13 11 10 10 11 11 12 13 14 15 15 14 14 14 14 14 13 12
18 18 18 18 18 18 18 19 19 19 20 20 21 21 21 22 23 23 23 23 23 22 21 20 17 14 11 9 8 7 6 6 6 7 9 10 10 10 11 10 10 10 9
16 16 16 17 17 17 17 18 18 19 20 20 20 20 21 22 23 24 24 25 25 25 25 24 21 18 14 11 8 7 4 2 2 4 6 7 8 8 8 8 8 7 7
14 15 15 16 16 16 16 17 17 17 18 19 19 19 20 21 23 24 25 26 27 27 27 27 26 23 20 17 15 13 11 9 8 7 7 7 7 7 7 7 7 7 6
13 13 14 15 15 15 16 16 16 17 17 18 18 19 20 21 22 23 24 26 27 28 28 29 28 27 25 22 20 18 17 15 14 12 11 10 8 8 9 9 8 7 6

GEFSMW_500_meanwind_042.txt.gz
Wind_Speed
42 44 46 46 45 44 43 44 43 42 40 39 37 36 34 32 30 30 30 29 29 28 29 29 28 26 25 25 25 24 23 22 22 21 22 22 21 21 21 21 21 20 20
45 46 48 49 49 49 49 47 46 45 44 42 41 39 38 36 34 32 31 31 32 31 30 30 29 28 27 27 27 27 26 25 24 23 24 24 24 24 24 24 23 23 22
44 46 48 48 48 48 50 49 47 46 46 45 43 42 40 38 37 36 35 34 34 34 32 29 28 29 29 29 30 29 28 27 27 26 25 25 25 26 25 26 26 25 24
41 43 43 45 46 46 47 48 47 46 44 45 44 42 41 40 38 38 37 36 36 36 34 32 31 31 31 31 31 31 30 29 28 27 26 26 26 26 26 27 27 26 26
38 38 37 38 39 41 42 43 43 44 43 43 43 41 39 39 39 39 39 38 38 36 35 34 33 33 31 30 30 31 32 31 30 29 28 27 27 26 27 27 28 28 27
31 31 31 31 32 33 35 36 37 37 37 39 40 39 39 38 37 37 37 37 37 37 35 35 34 33 32 31 31 31 32 32 32 31 30 29 29 29 28 28 29 29 29
23 23 23 24 23 24 25 27 29 30 31 33 35 36 37 36 36 35 35 35 35 34 34 33 33 33 33 32 32 31 31 32 32 32 31 30 30 30 30 30 31 31 31
19 16 15 16 16 16 18 20 23 24 25 27 29 31 31 32 32 31 32 32 32 32 32 32 32 32 33 34 34 34 33 33 33 32 33 32 30 30 30 31 32 31 32
16 13 11 11 11 11 12 13 15 18 20 22 24 26 27 27 28 28 29 29 30 31 32 32 33 34 35 35 35 35 34 33 32 32 33 34 33 32 32 32 32 33 32
15 13 10 10 8 8 7 7 9 12 14 16 18 20 22 23 24 25 26 27 28 30 31 32 33 34 34 34 34 35 34 34 35 34 34 33 33 32 33 33 33 33 32
15 13 11 10 8 6 5 5 5 6 9 11 13 15 16 18 19 21 23 25 26 27 29 30 31 31 31 31 32 32 32 33 33 32 31 31 31 30 30 30 31 31 30
18 16 14 13 12 10 8 7 6 4 3 3 5 6 8 11 13 15 16 18 20 22 24 26 26 27 28 29 29 29 30 29 28 28 28 29 28 28 29 29 29 29 28
20 19 19 17 16 15 14 13 11 10 8 7 5 3 3 4 6 9 11 12 14 16 18 20 21 22 23 24 24 25 25 25 25 25 25 25 25 25 24 24 24 24 24
22 22 21 21 20 18 17 16 15 13 12 10 8 7 6 5 5 6 6 7 9 10 12 14 16 16 17 18 20 20 21 22 22 22 21 21 20 20 20 20 20 20 19
22 22 22 21 21 20 19 19 18 17 15 14 13 11 10 9 8 7 7 7 7 7 8 9 10 11 13 15 16 17 18 18 18 18 18 17 17 18 18 17 17 16 15
22 22 22 22 21 21 20 20 20 19 18 17 16 15 13 12 11 10 10 9 8 8 9 9 9 10 11 12 13 14 15 15 15 15 14 15 15 15 15 14 14 13 13
23 23 23 23 22 22 22 21 21 20 20 19 18 18 17 15 14 13 13 12 11 11 10 10 10 11 12 12 12 13 14 15 16 17 16 16 15 14 14 13 13 12 12
21 22 23 22 22 22 22 22 21 21 21 20 20 19 18 18 17 16 15 14 13 13 12 11 11 10 10 11 12 13 14 15 16 16 17 16 16 16 15 14 13 13 13
20 20 21 21 22 22 22 22 22 22 22 21 21 20 20 20 20 19 19 17 16 15 14 13 12 11 10 10 10 12 13 15 16 15 15 16 15 15 14 14 14 13 13
19 19 19 20 21 21 21 21 21 21 22 22 22 21 21 21 22 22 21 20 20 18 17 15 13 12 10 9 9 9 11 12 13 14 14 15 15 15 14 14 14 13 13
17 18 18 18 19 19 20 20 20 21 21 21 22 22 23 23 23 23 23 23 22 21 19 17 15 13 10 8 7 7 7 8 10 12 12 12 13 13 13 13 13 12 12
16 17 17 17 17 18 18 19 20 20 20 21 21 22 23 24 24 24 25 25 24 23 22 20 18 15 12 9 6 3 2 3 6 8 9 10 10 11 11 11 11 11 11
15 16 16 16 16 17 17 18 19 19 19 20 21 22 23 24 24 25 26 26 26 25 24 23 21 18 15 13 10 7 5 4 5 6 8 8 9 10 10 10 10 10 9
15 15 16 16 16 16 16 17 18 18 19 19 21 22 22 23 24 25 26 26 27 26 26 25 23 21 19 17 15 12 10 10 9 9 9 10 10 10 10 9 9 8 8
14 14 15 15 15 15 15 16 17 18 18 19 20 21 22 23 23 24 25 26 27 27 26 26 25 24 22 20 18 17 15 14 13 12 12 11 11 10 10 10 9 9 8
12 13 13 14 14 15 15 15 16 17 18 19 20 21 22 22 23 24 25 25 25 26 26 26 26 25 24 23 21 20 18 17 16 15 15 14 14 13 12 12 11 10 10

GEFSMW_500_meanwind_048.txt.gz
Wind_Speed
39 40 41 42 43 44 46 47 49 50 49 49 48 47 44 43 42 41 38 38 37 35 34 31 29 27 25 24 23 22 22 22 21 21 21 21 22 22 22 22 22 22 22
38 39 40 41 43 44 45 47 48 49 50 51 51 50 49 47 46 44 42 39 36 35 34 33 32 30 27 26 25 24 24 24 24 23 23 23 23 24 24 25 25 25 25
34 36 38 39 41 42 43 44 46 47 48 49 50 50 50 51 50 47 44 42 38 36 34 33 33 31 28 26 26 26 24 24 24 25 25 25 25 26 26 26 27 27 27
30 31 32 33 35 37 38 40 42 44 45 47 47 49 49 49 49 47 47 45 42 39 36 33 31 29 28 27 27 26 25 25 26 26 27 28 27 27 28 28 28 28 28
27 26 27 27 27 29 30 32 34 36 39 40 42 44 45 46 47 46 45 44 43 40 37 34 32 30 29 28 28 27 27 26 26 27 27 28 29 29 29 29 29 30 30
22 22 23 23 23 23 23 24 25 27 30 33 34 37 40 41 42 43 43 43 41 39 37 36 34 32 31 30 30 29 29 28 28 28 28 29 30 32 31 30 31 31 31
19 20 21 21 19 18 17 17 18 20 22 24 26 28 32 35 37 37 38 39 38 37 36 36 35 33 32 32 31 31 31 30 30 29 29 30 30 32 33 33 32 32 32
17 18 19 18 16 14 13 12 12 13 13 15 17 21 24 27 30 32 33 34 34 34 34 34 33 33 32 32 32 32 31 31 31 30 31 31 31 32 33 33 34 34 34
16 17 17 15 13 11 10 8 8 7 8 8 10 13 18 21 23 26 28 28 29 31 31 32 32 32 32 33 33 32 32 32 32 32 32 32 32 32 32 33 33 34 35
18 17 17 16 14 12 11 9 7 6 6 5 5 8 10 13 16 20 23 25 26 27 28 29 30 31 32 32 33 33 32 33 33 33 33 32 32 34 33 33 34 35 35
19 19 19 18 17 16 15 13 11 9 8 7 5 2 4 8 11 13 16 19 21 23 25 27 28 29 30 31 32 33 34 34 34 34 34 33 33 34 34 35 34 34 34
20 20 20 19 19 18 18 16 15 13 11 9 8 6 3 1 4 8 11 14 17 19 21 23 25 26 28 30 31 33 34 34 34 34 34 34 34 34 33 33 32 32 32
21 22 22 21 20 19 19 18 18 16 14 12 10 9 6 4 1 2 5 9 12 15 18 20 22 24 26 28 30 31 32 33 33 33 32 32 32 32 31 31 31 31 30
21 22 22 22 21 21 20 20 20 19 17 16 14 12 10 8 6 4 2 4 6 9 12 15 18 20 23 25 26 27 28 29 30 30 30 29 30 30 29 28 28 29 29
21 21 21 22 22 22 22 21 20 19 19 18 16 15 13 11 9 7 6 4 5 6 8 10 12 15 17 20 22 24 24 26 26 26 26 27 27 26 25 25 24 25 25
21 21 22 22 22 22 22 22 21 20 20 19 18 16 14 13 11 10 9 7 6 6 7 8 10 12 14 16 18 20 22 24 24 24 24 24 23 24 24 24 22 21 20
20 21 21 21 21 21 21 21 21 20 20 20 19 18 17 17 15 13 12 10 9 8 8 8 9 10 12 13 15 17 19 20 21 21 21 22 22 22 22 22 21 20 19
19 20 20 20 20 20 20 20 20 20 20 20 19 19 19 18 17 16 15 14 12 11 9 8 7 8 9 10 12 13 15 16 18 19 19 19 20 20 19 19 19 17 17
17 18 18 19 19 19 19 19 19 19 20 20 19 19 19 19 19 18 17 17 15 14 11 9 7 7 7 8 9 10 12 14 16 17 17 18 18 18 17 17 17 17 16
16 16 17 17 18 18 19 19 19 20 20 20 20 20 20 20 20 20 20 19 18 17 15 11 9 7 6 6 6 7 9 11 14 16 17 17 17 17 17 16 16 16 16
15 15 15 16 17 17 18 18 19 20 20 20 20 20 20 21 21 21 21 21 20 19 17 14 10 7 5 4 3 3 6 8 11 14 16 17 17 16 17 16 16 16 15
14 14 15 15 16 16 17 17 18 19 19 20 20 20 21 21 22 22 22 21 21 21 19 16 13 10 7 5 3 1 2 5 9 12 14 15 16 16 16 16 15 15 15
13 14 14 14 15 15 16 17 17 18 19 20 20 20 21 22 22 22 23 22 21 21 21 19 16 13 10 9 7 6 5 6 8 10 13 15 15 15 15 15 15 14 14
12 13 13 13 14 14 15 16 16 18 19 19 20 20 21 22 23 23 23 22 22 22 21 20 19 16 14 12 10 10 10 10 10 11 12 12 13 14 14 14 14 13 13
11 11 12 12 13 13 13 14 15 16 18 19 20 20 21 21 22 23 23 22 22 22 22 21 20 19 17 16 14 13 13 13 13 13 12 12 12 13 13 13 12 12 12
10 10 10 11 11 12 13 13 14 15 16 18 19 19 20 21 22 22 22 22 22 22 21 21 21 20 19 18 17 16 15 15 15 14 13 13 13 13 13 12 12 12 12

GEFSMW_500_meanwind_054.txt.gz
Wind_Speed
35 35 35 35 36 37 38 40 41 43 44 45 46 46 47 47 47 46 45 44 41 38 35 36 35 34 33 33 33 31 29 27 26 25 24 23 23 22 22 22 21 21 20
33 34 34 34 34 35 36 37 38 40 41 43 45 46 46 47 48 47 46 44 43 41 40 37 36 36 35 33 33 32 31 30 29 27 26 25 25 25 24 24 23 23 22
29 30 31 31 32 32 32 33 35 36 37 39 40 42 44 46 46 46 45 45 44 44 42 39 37 36 34 34 35 34 33 32 31 30 27 27 27 26 25 25 25 25 24
26 27 27 28 28 29 31 32 32 32 33 33 35 37 40 42 44 44 44 45 45 44 44 42 40 39 37 35 34 35 34 33 33 32 30 29 29 27 26 26 26 26 26
24 24 25 25 25 26 27 28 28 28 28 28 29 31 34 37 39 41 42 43 43 42 42 42 42 40 39 38 35 33 35 35 34 33 32 30 29 28 27 27 27 27 27
22 22 22 22 22 22 22 22 22 23 23 24 25 27 28 31 34 36 39 40 40 40 40 39 39 39 36 35 36 34 34 35 34 33 33 32 30 29 28 28 28 27 27
21 20 20 20 20 18 18 18 18 18 18 19 20 21 23 25 27 30 33 35 37 37 37 37 37 37 37 35 36 36 34 34 34 33 32 32 31 30 28 28 29 28 28
19 19 19 19 19 17 16 16 15 14 13 14 15 15 16 17 19 22 25 28 31 33 34 35 35 35 35 35 36 37 35 35 34 34 33 32 33 32 30 28 29 28 28
20 20 20 19 19 18 17 15 15 13 12 11 11 12 11 12 14 16 19 22 25 26 29 32 32 33 34 34 34 35 35 35 35 35 35 33 33 32 31 31 30 29 28
21 21 20 20 20 19 18 17 16 15 14 12 11 11 10 8 9 11 13 16 20 22 24 27 29 31 32 33 34 33 33 34 34 34 33 33 33 33 32 31 31 30 30
21 21 20 21 21 20 20 19 18 17 16 15 14 13 11 9 7 5 7 10 13 16 19 23 25 27 29 31 32 33 34 34 34 34 34 34 33 33 33 32 32 31 30
21 21 22 22 22 21 21 21 21 19 18 18 17 16 14 12 9 7 6 6 7 11 15 17 20 23 25 27 30 31 32 33 33 34 34 34 34 34 33 32 32 31 30
20 21 21 22 22 22 22 22 22 22 21 20 19 18 17 15 12 9 8 7 7 7 9 12 15 19 21 24 27 27 27 29 31 32 32 32 33 34 33 32 32 32 31
20 20 21 21 22 22 23 22 23 23 22 21 20 19 18 17 16 13 11 9 8 7 7 9 11 15 17 20 22 24 26 27 28 29 30 30 31 32 32 31 31 31 31
20 20 20 21 21 22 22 22 22 22 22 22 22 21 19 18 17 16 14 12 10 9 8 8 9 12 14 16 18 20 22 23 25 26 27 27 28 29 30 29 28 29 28
20 20 21 21 22 22 22 22 22 22 22 22 22 21 21 20 19 17 16 15 13 11 10 10 10 11 12 13 15 17 19 20 22 23 25 26 26 26 26 26 27 26 26
20 20 21 21 22 22 22 23 23 22 22 22 22 22 21 21 20 19 18 17 15 13 12 10 9 9 10 11 13 14 16 18 19 21 22 24 24 24 24 24 24 23 23
19 20 20 20 21 22 23 23 23 23 22 22 22 22 22 23 22 21 20 19 18 15 13 11 9 8 8 9 10 12 14 15 16 17 18 20 21 22 21 20 21 21 20
19 19 19 19 20 21 22 22 23 23 23 23 23 24 24 24 24 23 22 21 19 17 15 12 10 8 7 7 8 9 11 12 13 14 16 17 18 20 20 19 19 19 19
19 18 18 18 19 20 20 21 22 22 23 23 24 24 25 25 25 24 23 22 21 19 16 13 11 9 7 6 5 6 7 9 10 11 13 14 16 16 16 17 17 18 18
18 18 18 18 18 19 20 21 22 22 23 23 24 24 25 26 26 25 24 23 22 21 18 16 13 11 9 6 3 2 4 5 8 9 12 13 14 14 14 14 14 15 16
17 17 17 17 18 18 19 20 21 22 22 23 24 24 25 26 26 26 25 24 24 22 20 18 15 13 11 8 6 2 1 4 7 9 10 11 12 13 14 14 14 14 14
16 17 17 17 17 18 19 19 20 21 21 22 23 24 25 25 26 26 25 24 24 23 21 20 18 15 13 12 9 6 4 4 6 8 9 10 11 11 13 13 14 15 14
16 16 16 16 16 17 18 19 20 20 21 22 22 23 24 25 26 26 25 24 24 24 23 21 20 18 16 14 13 11 9 8 8 9 10 11 12 12 13 14 14 14 13
15 15 15 15 15 16 17 18 18 19 20 20 21 22 23 24 24 25 25 24 24 24 23 22 21 19 18 16 16 15 13 13 12 12 12 12 13 13 13 13 13 12 12
14 14 14 14 14 15 15 16 17 17 18 19 20 21 22 22 23 24 24 24 24 23 23 22 22 21 20 19 18 17 17 16 15 14 13 13 13 13 12 12 12 11 11

GEFSMW_500_meanwind_060.txt.gz
Wind_Speed
27 27 27 27 28 29 30 31 32 33 33 34 34 35 37 38 39 40 41 41 42 42 41 40 39 36 33 32 33 33 33 32 31 30 29 29 28 26 25 24 23 22 21
25 26 25 25 26 27 27 28 28 28 29 31 32 33 34 36 37 39 40 40 41 42 43 42 40 39 37 34 33 33 31 32 32 31 30 30 30 29 28 27 26 25 23
23 24 24 24 24 24 24 24 25 25 25 27 28 30 31 33 34 36 38 39 39 41 41 42 42 41 39 36 34 33 33 31 32 32 30 30 31 31 30 29 28 26 25
22 22 22 22 22 22 21 20 20 20 21 22 24 26 28 30 32 33 35 36 37 38 39 40 41 41 40 37 35 35 34 32 32 33 33 33 33 33 31 31 29 28 27
22 21 21 21 21 21 20 18 17 17 18 19 20 22 24 25 27 29 31 33 34 36 38 39 40 40 39 38 36 37 35 34 33 33 34 35 34 34 33 32 31 29 28
21 21 22 22 21 20 19 17 16 15 15 15 16 17 19 21 23 25 27 29 31 34 36 37 38 39 39 38 38 38 37 36 35 35 35 35 35 36 35 35 34 32 31
21 21 22 22 22 21 20 18 17 16 15 14 13 13 14 15 17 20 22 25 28 30 33 35 36 38 39 39 39 38 37 36 36 36 37 37 35 34 36 37 36 35 33
20 21 22 22 22 21 21 20 19 17 16 15 13 12 12 11 12 14 17 20 22 26 29 31 34 36 38 39 39 39 38 37 36 36 37 37 37 36 37 38 37 37 36
21 21 23 23 22 22 21 21 20 19 18 17 15 13 11 11 10 9 10 13 16 20 24 28 31 34 36 39 39 38 38 37 36 36 36 37 38 38 38 37 37 37 37
21 21 22 23 23 22 22 22 21 20 20 18 17 15 13 12 11 10 9 9 11 14 18 23 27 30 33 36 37 38 39 39 37 36 36 36 37 39 40 39 38 38 37
21 21 22 23 23 22 22 22 22 21 21 20 18 17 15 14 13 12 9 8 7 9 12 17 21 25 28 32 35 38 39 39 38 38 37 37 36 37 37 37 38 38 38
21 21 21 22 23 23 23 23 22 22 21 21 19 18 17 16 15 13 11 9 7 7 9 12 16 19 23 27 31 34 36 37 37 37 37 36 37 37 37 38 37 37 37
20 21 22 22 23 23 23 23 23 22 22 21 21 20 19 17 16 15 12 11 9 8 7 9 12 16 19 22 25 29 32 35 36 37 37 36 36 36 37 37 37 36 36
20 20 21 22 23 23 23 23 23 23 22 22 22 21 20 19 18 17 15 13 11 10 9 7 8 11 15 19 22 26 29 32 34 35 36 36 36 35 35 36 35 35 35
19 20 21 21 22 23 23 23 23 23 23 23 22 22 21 20 19 18 16 15 13 11 10 8 7 9 11 14 18 21 24 26 29 32 33 33 34 34 34 34 34 35 35
19 19 20 21 22 23 23 23 24 24 24 24 23 23 22 22 21 20 18 16 14 12 10 9 7 8 10 12 15 18 21 23 25 28 30 31 30 30 32 33 32 32 32
19 19 20 21 21 22 23 23 24 24 24 24 24 24 24 24 23 21 19 18 16 14 11 9 7 7 8 10 12 14 18 20 22 23 25 28 28 28 29 30 28 28 29
19 20 20 20 21 22 22 23 23 24 25 25 25 25 25 25 24 23 21 20 18 15 13 10 8 6 6 7 9 11 13 16 18 20 22 23 24 25 26 26 25 24 25
19 19 20 20 21 22 22 23 23 24 25 25 26 26 26 26 26 24 23 22 20 18 15 12 10 7 5 5 6 8 11 13 15 17 19 21 22 22 23 23 22 22 22
18 18 19 20 20 21 22 23 23 24 24 25 26 26 26 26 26 25 24 23 22 20 18 15 12 9 6 3 3 5 7 10 12 13 15 17 19 20 21 20 20 20 20
17 18 18 19 19 20 21 22 23 23 24 25 25 26 26 25 25 25 25 24 23 22 20 17 14 11 8 4 1 3 5 7 9 11 13 15 17 18 19 20 20 19 19
17 18 18 18 19 19 20 21 21 22 23 24 25 25 25 25 25 25 25 25 24 23 21 19 17 14 10 7 3 2 4 5 7 9 11 14 15 16 17 18 19 19 19
17 17 18 18 18 18 19 20 20 21 21 23 24 24 24 24 24 25 25 25 24 23 22 21 18 16 13 9 7 5 5 4 5 7 10 13 14 16 16 16 17 18 19
17 17 17 17 17 17 18 18 19 19 20 21 22 23 23 23 23 24 24 24 24 23 23 21 20 17 14 12 9 7 8 8 8 8 10 12 14 15 15 15 16 17 18
17 17 17 17 17 17 17 17 18 18 18 19 19 20 21 22 22 22 23 23 23 22 23 22 21 18 16 15 13 12 10 9 10 11 12 13 14 14 14 15 16 17 18
18 18 17 17 17 17 16 16 16 17 17 17 17 18 19 19 20 20 21 21 22 21 21 21 21 20 18 16 14 13 12 11 11 12 13 14 14 14 14 15 15 16 16